This is the latest recevied weather packets stored in our database for station/object N3EDS. If no packets are shown the sender has not sent any weather packets the latest 10 day(s).
| Time | Temp. | Humidity | Pressure | Rain* | Wind** | Luminosity | Snow |
|---|---|---|---|---|---|---|---|
| 1777586654 | 6.67° C | 83% | 1013.9 hPa | 0 mm | - | 78 W/m² | - |
| 1777586350 | 6.67° C | 85% | 1013.9 hPa | 0 mm | - | 118 W/m² | - |
| 1777586049 | 6.11° C | 84% | 1013.8 hPa | 0 mm | - | 82 W/m² | - |
| 1777585747 | 6.67° C | 87% | 1013.3 hPa | 0 mm | - | 43 W/m² | - |
| 1777585442 | 6.67° C | 85% | 1013.6 hPa | 0 mm | - | 66 W/m² | - |
| 1777585137 | 6.67° C | 86% | 1013.8 hPa | 0 mm | - | 90 W/m² | - |
| 1777584834 | 6.67° C | 86% | 1013.7 hPa | 0 mm | - | 83 W/m² | - |
| 1777584532 | 6.11° C | 85% | 1013.7 hPa | 0 mm | - | 79 W/m² | - |
| 1777584228 | 6.11° C | 86% | 1013.4 hPa | 0 mm | - | 78 W/m² | - |
| 1777583927 | 6.11° C | 85% | 1013.6 hPa | 0 mm | - | 74 W/m² | - |
| 1777583624 | 6.11° C | 88% | 1013.2 hPa | 0 mm | - | 82 W/m² | - |
| 1777583322 | 6.11° C | 87% | 1013.2 hPa | 0 mm | - | 66 W/m² | - |
| 1777583017 | 6.11° C | 89% | 1013.1 hPa | 0 mm | - | 53 W/m² | - |
| 1777582715 | 6.11° C | 87% | 1013.2 hPa | 0 mm | - | 41 W/m² | - |
| 1777582409 | 6.11° C | 87% | 1013.2 hPa | 0 mm | - | 58 W/m² | - |
| 1777582109 | 6.11° C | 87% | 1013.2 hPa | 0 mm | - | 45 W/m² | - |
| 1777581804 | 6.11° C | 87% | 1013.4 hPa | 0 mm | - | 65 W/m² | - |
| 1777581502 | 6.11° C | 87% | 1013.6 hPa | 0 mm | - | 49 W/m² | - |
| 1777581198 | 6.11° C | 86% | 1013.3 hPa | 0 mm | - | 50 W/m² | - |
| 1777580892 | 6.11° C | 87% | 1013.6 hPa | 0 mm | - | 64 W/m² | - |
| 1777580587 | 6.11° C | 86% | 1013.3 hPa | 0 mm | - | 61 W/m² | - |
| 1777580283 | 6.67° C | 87% | 1013.1 hPa | 0 mm | - | 50 W/m² | - |
| 1777579980 | 6.67° C | 87% | 1013.3 hPa | 0 mm | - | 57 W/m² | - |
| 1777579675 | 6.67° C | 86% | 1013 hPa | 0 mm | - | 174 W/m² | - |
| 1777579374 | 6.11° C | 86% | 1013 hPa | 0 mm | - | 219 W/m² | - |
* Rain latest hour (hover to see other rain measurements)
** Current wind speed in m/s (hover to see current wind gust speed)